Regional Weather Roundup
Issued by NWS Newport/Morehead, NC

Current Version | Previous Version | Text Only | Print | Product List | Glossary Off
Versions: 1 2 3 4 5 6 7 8 9 10 11 12 13 14 15 16 17 18 19 20 21 22 23 24 25 26 27 28 29 30 31 32 33 34 35 36 37 38 39 40 41 42 43 44 45 46 47 48 49 50
000 ASUS42 KMHX 010713 RWRMHX WEATHER ROUNDUP FOR EASTERN NORTH CAROLINA NATIONAL WEATHER SERVICE NEWPORT/MOREHEAD CITY NC 300 AM EDT SAT OCT 01 2016 NOTE: "FAIR" INDICATES FEW OR NO CLOUDS BELOW 12,000 FEET WITH NO SIGNIFICANT WEATHER AND/OR OBSTRUCTIONS TO VISIBILITY NCZ015>017-031-032-045>047-102-103-010800- NORTH COAST CITY SKY/WX TMP DP RH WIND PRES REMARKS EDENTON CLOUDY 75 75 100 S5 30.04F ELIZABETH CITY CLOUDY 74 72 93 SE5 30.04S KITTY HAWK CLOUDY 76 76 99 S5 30.04S MANTEO MOCLDY 77 74 92 S13 30.05F $$ NCZ045>047-081-094-103-104-010800- CENTRAL COAST CITY SKY/WX TMP DP RH WIND PRES REMARKS FRISCO CLOUDY 79 74 84 S13 30.05F $$ NCZ095-097-098-100-101-010800- SOUTHERN COAST CITY SKY/WX TMP DP RH WIND PRES REMARKS BEAUFORT LGT RAIN 75 71 87 S12 30.04S CEDAR ISLAND NOT AVBL JACKSONVILLE HVY RAIN 74 73 97 W5 30.01F FOG PINEY ISLAND NOT AVBL WILMINGTON CLOUDY 73 72 96 CALM 30.01F $$ NCZ011>013-027>030-043-044-078>080-089-090>093-098-010800- COASTAL PLAIN CITY SKY/WX TMP DP RH WIND PRES REMARKS AHOSKIE PTCLDY 70 69 99 CALM 30.04S CLINTON FOG 69 69 100 CALM 30.02F VSB 1/2 ELIZABETHTOWN NOT AVBL GOLDSBORO FOG 70 70 100 E3 30.00S VSB 1/2 GREENVILLE CLOUDY 73 73 100 CALM 30.04S HAVELOCK RAIN 73 71 93 CALM 30.04F FOG KENANSVILLE FOG 68 68 100 CALM 30.02F VSB 1/2 KINSTON MOCLDY 73 72 98 CALM 30.04S FOG NEW BERN LGT RAIN 74 69 85 SE9 30.04S RICHLANDS LGT RAIN 72 71 97 CALM 30.03R FOG ROCKY MOUNT CLOUDY 72 72 100 CALM 30.03S FOG WASHINGTON MOCLDY 73 72 96 SE6 30.04S WHITEVILLE NOT AVBL $$ AMZ130-135-150-152-154-156-158-170-250-252-270-ANZ085-086-088-633-658-670-010800- MARINE OBSERVATIONS STATION/POSITION TIME TEMP WIND PRES WAVE SWELL AIR SEA DIR/SP/G HT/PER HT/PER (UTC) (F) (DEG/KT/KT) (MB) (FT/S) (FT/S) CHESAPEAKE LIGHT NOT AVBL 64 E VA BEACH 0650 75 75 160/ 2/ 4 1017.5 8/10 7/10 DUCK 0630 76 76 160/ 8/ 9 1016.7 2 E DUCK 0641 76 N/A 5/10 2/11 OREGON INLET 0630 77 79 150/ 7/ 11 1017.3 13E OREGON INLT 0700 76 N/A 6/10 7/10 HATTERAS CG 0630 79 79 160/ 11/ 17 1017.3 DIAMOND BUOY 0650 81 83 180/ 17/ 23 1017.4 5/11 3/11 CAPE LOOKOUT 0700 76 160/ 16/ 18 1016.7 BEAUFORT LAB 0630 75 76 170/ 14/ 20 1016.9 30 SE NEW RVR IN 0608 79 82 140/ 16/ 21 1016.9 30 SE NEW RVR IN 0555 82 N/A 5/ 6 2/12 27 SE WRIGHTSVLE 0608 80 81 170/ 10/ 16 1016.5 5 SE WRIGHTSVLE 0608 78 80 230/ 4/ 8 1017.4 225 S CAPE HAT 0650 82 83 130/ 14/ 17 1017.8 5/11 5/11 41 SE CHARLESTON 0650 80 82 290/ 8/ 10 1015.3 3/ 9 2/ 9 $$

USA.gov is the U.S. government's official web portal to all federal, state and local government web resources and services.